HAZ6104 ZLDH-ZUTF

Flight info

Callsign HAZ6104
Flight time 2h 23m
Altitude 35100
Route VIKUP W191 DNC V118 VIKOV B330 MEXAD
Aircraft B738/M-SDE2E3FGHIRWXY/LB1

Departure

Time 2026-04-21 04:20
Airport Dunhuang Mogao International Airport (ZLDH)

Arrival

Time 2026-04-21 06:43
Airport Chengdu Tianfu International Airport (ZUTF)
Time Latitude Longitude Altitude Speed Heading
2026-04-21 03:55 40.16497 94.80609 3698 ft 0 kts 354°
2026-04-21 04:11 40.16486 94.80611 3698 ft 2 kts 354°
2026-04-21 04:11 40.16471 94.80612 3699 ft 2 kts 354°
2026-04-21 04:11 40.16456 94.80615 3700 ft 2 kts 354°
2026-04-21 04:11 40.16441 94.80617 3701 ft 2 kts 354°
2026-04-21 04:12 40.16426 94.80617 3701 ft 2 kts 11°
2026-04-21 04:12 40.16412 94.80611 3702 ft 2 kts 34°
2026-04-21 04:12 40.16401 94.80597 3703 ft 2 kts 59°
2026-04-21 04:12 40.16396 94.80580 3703 ft 0 kts 81°
2026-04-21 04:13 40.16396 94.80572 3704 ft 1 kts 85°
2026-04-21 04:13 40.16396 94.80571 3704 ft 0 kts 85°
2026-04-21 04:14 40.16397 94.80582 3704 ft 3 kts 85°
2026-04-21 04:15 40.16402 94.80637 3703 ft 8 kts 83°
2026-04-21 04:15 40.16410 94.80741 3703 ft 14 kts 84°
2026-04-21 04:15 40.16421 94.80878 3704 ft 16 kts 84°
2026-04-21 04:15 40.16433 94.81037 3703 ft 19 kts 84°
2026-04-21 04:16 40.16446 94.81208 3702 ft 15 kts 84°
2026-04-21 04:16 40.16420 94.81319 3701 ft 12 kts 168°
2026-04-21 04:16 40.16334 94.81330 3704 ft 12 kts 175°
2026-04-21 04:16 40.16254 94.81340 3709 ft 10 kts 174°
2026-04-21 04:17 40.16207 94.81381 3712 ft 9 kts 92°
2026-04-21 04:17 40.16214 94.81482 3711 ft 12 kts 84°
2026-04-21 04:17 40.16225 94.81611 3711 ft 15 kts 84°
2026-04-21 04:17 40.16237 94.81772 3708 ft 20 kts 84°
2026-04-21 04:18 40.16253 94.81968 3708 ft 23 kts 84°
2026-04-21 04:18 40.16270 94.82191 3707 ft 26 kts 84°
2026-04-21 04:18 40.16290 94.82435 3705 ft 27 kts 85°
2026-04-21 04:18 40.16310 94.82689 3702 ft 28 kts 84°
2026-04-21 04:19 40.16327 94.82910 3700 ft 21 kts 84°
2026-04-21 04:19 40.16331 94.83096 3698 ft 20 kts 90°
2026-04-21 04:19 40.16378 94.83170 3696 ft 12 kts 280°
2026-04-21 04:19 40.16341 94.83076 3698 ft 11 kts 261°
2026-04-21 04:20 40.16339 94.83051 3698 ft 0 kts 264°
2026-04-21 04:20 40.16339 94.83049 3698 ft 2 kts 264°
2026-04-21 04:20 40.16311 94.82693 3702 ft 75 kts 264°
2026-04-21 04:20 40.16233 94.81719 3709 ft 138 kts 264°
2026-04-21 04:21 40.16120 94.80261 3900 ft 172 kts 265°
2026-04-21 04:21 40.16010 94.78758 4679 ft 170 kts 265°
2026-04-21 04:21 40.15894 94.77233 5391 ft 171 kts 264°
2026-04-21 04:21 40.15766 94.75713 6010 ft 172 kts 264°
2026-04-21 04:22 40.15633 94.74160 6575 ft 175 kts 264°
2026-04-21 04:22 40.15489 94.72560 7129 ft 180 kts 260°
2026-04-21 04:22 40.14902 94.71066 7459 ft 202 kts 223°
2026-04-21 04:22 40.13615 94.70169 7893 ft 219 kts 201°
2026-04-21 04:23 40.12127 94.69537 8385 ft 232 kts 200°
2026-04-21 04:23 40.10556 94.68883 8888 ft 244 kts 200°
2026-04-21 04:23 40.08896 94.68182 9390 ft 257 kts 201°
2026-04-21 04:23 40.07164 94.67447 9983 ft 266 kts 200°
2026-04-21 04:24 40.05390 94.66696 10616 ft 275 kts 200°
2026-04-21 04:24 40.03526 94.65946 11117 ft 290 kts 197°
2026-04-21 04:24 40.01482 94.65534 11616 ft 307 kts 183°
2026-04-21 04:24 39.99309 94.65913 12115 ft 325 kts 166°
2026-04-21 04:25 39.97190 94.67093 12610 ft 342 kts 152°
2026-04-21 04:25 39.95199 94.68958 13098 ft 359 kts 139°
2026-04-21 04:25 39.93605 94.71516 13522 ft 377 kts 121°
2026-04-21 04:25 39.92678 94.74777 13986 ft 393 kts 101°
2026-04-21 04:26 39.92457 94.78348 14490 ft 406 kts 91°
2026-04-21 04:26 39.92432 94.82034 15196 ft 414 kts 90°
2026-04-21 04:26 39.92432 94.85790 15960 ft 420 kts 90°
2026-04-21 04:26 39.92430 94.89635 16762 ft 425 kts 90°
2026-04-21 04:27 39.92420 94.93458 17573 ft 428 kts 91°
2026-04-21 04:27 39.92403 94.97334 18285 ft 434 kts 91°
2026-04-21 04:27 39.92379 95.01287 18986 ft 440 kts 91°
2026-04-21 04:27 39.92350 95.05290 19640 ft 447 kts 91°
2026-04-21 04:28 39.92291 95.09367 20299 ft 453 kts 94°
2026-04-21 04:28 39.92028 95.13435 20885 ft 459 kts 99°
2026-04-21 04:28 39.91346 95.17478 21517 ft 462 kts 109°
2026-04-21 04:28 39.90237 95.21431 22150 ft 465 kts 115°
2026-04-21 04:29 39.88918 95.25279 22810 ft 468 kts 118°
2026-04-21 04:29 39.87494 95.29082 23441 ft 472 kts 120°
2026-04-21 04:29 39.86014 95.32891 24033 ft 477 kts 121°
2026-04-21 04:29 39.84501 95.36740 24662 ft 481 kts 121°
2026-04-21 04:30 39.82974 95.40625 25253 ft 486 kts 121°
2026-04-21 04:30 39.81453 95.44539 25835 ft 490 kts 121°
2026-04-21 04:30 39.79929 95.48471 26397 ft 493 kts 121°
2026-04-21 04:30 39.78383 95.52470 26854 ft 499 kts 121°
2026-04-21 04:31 39.76831 95.56503 27441 ft 501 kts 120°
2026-04-21 04:31 39.75288 95.60540 27997 ft 504 kts 121°
2026-04-21 04:31 39.73741 95.64615 28673 ft 503 kts 120°
2026-04-21 04:31 39.72217 95.68652 29529 ft 497 kts 121°
2026-04-21 04:32 39.70710 95.72643 30323 ft 493 kts 121°
2026-04-21 04:32 39.69216 95.76598 30916 ft 491 kts 122°
2026-04-21 04:32 39.67709 95.80576 31370 ft 492 kts 122°
2026-04-21 04:32 39.66190 95.84573 31791 ft 494 kts 122°
2026-04-21 04:33 39.64669 95.88560 32105 ft 498 kts 122°
2026-04-21 04:33 39.63131 95.92587 32481 ft 500 kts 122°
2026-04-21 04:33 39.61578 95.96653 32886 ft 501 kts 122°
2026-04-21 04:33 39.60049 96.00652 33358 ft 501 kts 122°
2026-04-21 04:34 39.58494 96.04726 33831 ft 499 kts 122°
2026-04-21 04:34 39.56956 96.08749 34247 ft 499 kts 122°
2026-04-21 04:34 39.55397 96.12806 34561 ft 500 kts 122°
2026-04-21 04:34 39.53844 96.16794 34915 ft 499 kts 123°
2026-04-21 04:35 39.52263 96.20810 35227 ft 500 kts 123°
2026-04-21 04:35 39.49049 96.28912 35258 ft 504 kts 123°
2026-04-21 04:36 39.45836 96.36995 35245 ft 502 kts 122°
2026-04-21 04:36 39.42635 96.45029 35250 ft 502 kts 123°
2026-04-21 04:37 39.39443 96.53024 35272 ft 506 kts 123°
2026-04-21 04:37 39.36213 96.61109 35287 ft 501 kts 123°
2026-04-21 04:38 39.33002 96.69125 35303 ft 503 kts 123°
2026-04-21 04:38 39.29783 96.77144 35313 ft 503 kts 123°
2026-04-21 04:39 39.26568 96.85150 35344 ft 502 kts 124°
2026-04-21 04:39 39.23375 96.93166 35377 ft 503 kts 123°
2026-04-21 04:40 39.20199 97.01202 35388 ft 503 kts 123°
2026-04-21 04:40 39.17043 97.09190 35391 ft 502 kts 123°
2026-04-21 04:41 39.13855 97.17221 35411 ft 505 kts 123°
2026-04-21 04:41 39.10657 97.25253 35435 ft 503 kts 124°
2026-04-21 04:42 39.07482 97.33194 35431 ft 504 kts 124°
2026-04-21 04:42 39.04258 97.41226 35453 ft 505 kts 124°
2026-04-21 04:43 39.01067 97.49158 35472 ft 503 kts 123°
2026-04-21 04:43 38.97845 97.57140 35461 ft 503 kts 123°
2026-04-21 04:44 38.94618 97.65120 35422 ft 505 kts 124°
2026-04-21 04:44 38.91389 97.73085 35404 ft 504 kts 124°
2026-04-21 04:45 38.88157 97.81023 35397 ft 501 kts 124°
2026-04-21 04:45 38.84918 97.88956 35419 ft 504 kts 124°
2026-04-21 04:46 38.81689 97.96853 35429 ft 503 kts 124°
2026-04-21 04:46 38.78432 98.04792 35433 ft 503 kts 124°
2026-04-21 04:47 38.75166 98.12727 35420 ft 504 kts 124°
2026-04-21 04:47 38.71903 98.20638 35409 ft 503 kts 124°
2026-04-21 04:48 38.68634 98.28540 35402 ft 503 kts 124°
2026-04-21 04:48 38.65376 98.36406 35426 ft 501 kts 124°
2026-04-21 04:49 38.62110 98.44270 35444 ft 503 kts 124°
2026-04-21 04:49 38.58843 98.52109 35428 ft 502 kts 123°
2026-04-21 04:50 38.55557 98.59977 35391 ft 502 kts 123°
2026-04-21 04:50 38.52296 98.67782 35368 ft 501 kts 124°
2026-04-21 04:51 38.49013 98.75609 35368 ft 500 kts 124°
2026-04-21 04:51 38.45721 98.83433 35365 ft 501 kts 124°
2026-04-21 04:52 38.42421 98.91264 35369 ft 501 kts 124°
2026-04-21 04:52 38.39138 98.99039 35383 ft 498 kts 123°
2026-04-21 04:53 38.35845 99.06804 35394 ft 501 kts 124°
2026-04-21 04:53 38.32553 99.14541 35396 ft 500 kts 123°
2026-04-21 04:54 38.29243 99.22308 35401 ft 498 kts 124°
2026-04-21 04:54 38.25933 99.30061 35378 ft 499 kts 124°
2026-04-21 04:55 38.22631 99.37780 35363 ft 498 kts 124°
2026-04-21 04:55 38.19308 99.45523 35368 ft 499 kts 124°
2026-04-21 04:56 38.15980 99.53255 35360 ft 500 kts 123°
2026-04-21 04:56 38.12665 99.60944 35353 ft 499 kts 123°
2026-04-21 04:57 38.09365 99.68588 35388 ft 495 kts 124°
2026-04-21 04:57 38.06044 99.76251 35411 ft 497 kts 124°
2026-04-21 04:58 38.02703 99.83940 35412 ft 498 kts 124°
2026-04-21 04:58 37.99369 99.91617 35434 ft 497 kts 124°
2026-04-21 04:59 37.96041 99.99256 35424 ft 496 kts 124°
2026-04-21 04:59 37.92683 100.06938 35406 ft 498 kts 124°
2026-04-21 05:00 37.89362 100.14517 35385 ft 497 kts 124°
2026-04-21 05:00 37.84335 100.25932 35351 ft 495 kts 124°
2026-04-21 05:01 37.80973 100.33546 35368 ft 496 kts 124°
2026-04-21 05:01 37.77610 100.41152 35383 ft 496 kts 124°
2026-04-21 05:02 37.74242 100.48749 35405 ft 498 kts 124°
2026-04-21 05:02 37.70879 100.56315 35400 ft 496 kts 123°
2026-04-21 05:03 37.67506 100.63887 35378 ft 495 kts 123°
2026-04-21 05:03 37.64133 100.71497 35355 ft 496 kts 123°
2026-04-21 05:04 37.60876 100.79185 35353 ft 496 kts 122°
2026-04-21 05:04 37.57682 100.86860 35348 ft 498 kts 122°
2026-04-21 05:05 37.54474 100.94546 35337 ft 496 kts 122°
2026-04-21 05:05 37.51249 101.02214 35318 ft 497 kts 122°
2026-04-21 05:06 37.48015 101.09853 35340 ft 498 kts 122°
2026-04-21 05:06 37.44764 101.17502 35362 ft 496 kts 122°
2026-04-21 05:07 37.41505 101.25136 35367 ft 498 kts 122°
2026-04-21 05:07 37.38231 101.32785 35361 ft 498 kts 122°
2026-04-21 05:08 37.34946 101.40443 35357 ft 498 kts 122°
2026-04-21 05:08 37.31676 101.48070 35362 ft 498 kts 121°
2026-04-21 05:09 37.28953 101.56084 35342 ft 505 kts 112°
2026-04-21 05:09 37.26844 101.64470 35329 ft 506 kts 109°
2026-04-21 05:10 37.24948 101.72971 35319 ft 505 kts 109°
2026-04-21 05:10 37.23073 101.81460 35312 ft 507 kts 109°
2026-04-21 05:11 37.21172 101.89906 35315 ft 507 kts 109°
2026-04-21 05:11 37.19232 101.98377 35334 ft 506 kts 109°
2026-04-21 05:12 37.17263 102.06877 35321 ft 505 kts 109°
2026-04-21 05:12 37.15302 102.15284 35311 ft 506 kts 109°
2026-04-21 05:13 37.13313 102.23777 35307 ft 506 kts 109°
2026-04-21 05:13 37.10903 102.31956 35299 ft 502 kts 118°
2026-04-21 05:14 37.07606 102.39656 35300 ft 499 kts 124°
2026-04-21 05:14 37.05810 102.43349 35500 ft 497 kts 126°
2026-04-21 05:14 37.03964 102.47020 35295 ft 496 kts 126°
2026-04-21 05:15 37.00277 102.54243 35294 ft 498 kts 126°
2026-04-21 05:15 36.96556 102.61541 35290 ft 497 kts 126°
2026-04-21 05:16 36.92868 102.68825 35285 ft 496 kts 127°
2026-04-21 05:16 36.89196 102.76105 35295 ft 498 kts 127°
2026-04-21 05:17 36.85504 102.83426 35311 ft 497 kts 127°
2026-04-21 05:17 36.81832 102.90756 35313 ft 499 kts 124°
2026-04-21 05:18 36.78548 102.98413 35306 ft 502 kts 120°
2026-04-21 05:18 36.75567 103.06252 35306 ft 503 kts 118°
2026-04-21 05:19 36.72607 103.14166 35295 ft 504 kts 119°
2026-04-21 05:19 36.69616 103.22027 35285 ft 505 kts 119°
2026-04-21 05:20 36.66583 103.29878 35289 ft 504 kts 119°
2026-04-21 05:20 36.63545 103.37667 35256 ft 504 kts 119°
2026-04-21 05:21 36.60465 103.45527 35230 ft 506 kts 120°
2026-04-21 05:21 36.57384 103.53365 35195 ft 506 kts 120°
2026-04-21 05:22 36.53973 103.61025 35151 ft 501 kts 130°
2026-04-21 05:22 36.49318 103.67288 35157 ft 489 kts 144°
2026-04-21 05:23 36.44175 103.72706 35162 ft 487 kts 147°
2026-04-21 05:23 36.38888 103.78005 35185 ft 487 kts 148°
2026-04-21 05:24 36.33658 103.83276 35193 ft 488 kts 147°
2026-04-21 05:24 36.28424 103.88627 35190 ft 487 kts 147°
2026-04-21 05:25 36.23182 103.94027 35195 ft 490 kts 147°
2026-04-21 05:25 36.17978 103.99410 35180 ft 487 kts 147°
2026-04-21 05:26 36.12779 104.04784 35179 ft 490 kts 147°
2026-04-21 05:26 36.07576 104.10153 35170 ft 490 kts 147°
2026-04-21 05:27 36.02356 104.15530 35165 ft 488 kts 147°
2026-04-21 05:27 35.97100 104.20930 35168 ft 492 kts 147°
2026-04-21 05:28 35.91857 104.26308 35177 ft 492 kts 147°
2026-04-21 05:28 35.86533 104.31557 35174 ft 487 kts 153°
2026-04-21 05:29 35.83662 104.33629 35173 ft 470 kts 165°
2026-04-21 05:29 35.80611 104.34861 35178 ft 458 kts 177°
2026-04-21 05:29 35.77498 104.35371 35183 ft 447 kts 185°
2026-04-21 05:29 35.74417 104.35561 35183 ft 445 kts 187°
2026-04-21 05:30 35.68243 104.35666 35192 ft 441 kts 189°
2026-04-21 05:30 35.62126 104.35689 35190 ft 441 kts 189°
2026-04-21 05:31 35.56000 104.35726 35193 ft 443 kts 189°
2026-04-21 05:31 35.49859 104.35796 35206 ft 440 kts 188°
2026-04-21 05:32 35.43725 104.35883 35210 ft 440 kts 189°
2026-04-21 05:32 35.37614 104.35975 35204 ft 441 kts 189°
2026-04-21 05:33 35.31506 104.36073 35215 ft 437 kts 189°
2026-04-21 05:33 35.25391 104.36166 35218 ft 440 kts 189°
2026-04-21 05:34 35.19304 104.36260 35216 ft 436 kts 189°
2026-04-21 05:34 35.13231 104.36356 35226 ft 439 kts 189°
2026-04-21 05:35 35.07117 104.36454 35233 ft 438 kts 189°
2026-04-21 05:35 35.01003 104.36550 35242 ft 439 kts 190°
2026-04-21 05:36 34.94917 104.36650 35240 ft 437 kts 189°
2026-04-21 05:36 34.88807 104.36751 35243 ft 438 kts 190°
2026-04-21 05:37 34.82745 104.36847 35240 ft 436 kts 189°
2026-04-21 05:37 34.76674 104.36941 35233 ft 439 kts 189°
2026-04-21 05:38 34.70564 104.37037 35235 ft 435 kts 189°
2026-04-21 05:38 34.64511 104.37131 35231 ft 437 kts 189°
2026-04-21 05:39 34.58409 104.37227 35232 ft 438 kts 189°
2026-04-21 05:39 34.52347 104.37324 35233 ft 435 kts 189°
2026-04-21 05:40 34.46295 104.37414 35229 ft 437 kts 189°
2026-04-21 05:40 34.40228 104.37509 35222 ft 435 kts 189°
2026-04-21 05:41 34.34179 104.37603 35222 ft 436 kts 189°
2026-04-21 05:41 34.28111 104.37699 35222 ft 433 kts 189°
2026-04-21 05:42 34.22065 104.37790 35218 ft 435 kts 189°
2026-04-21 05:42 34.19043 104.37839 35098 ft 433 kts 189°
2026-04-21 05:42 34.16022 104.37886 34800 ft 434 kts 189°
2026-04-21 05:43 34.13002 104.37931 34504 ft 436 kts 189°
2026-04-21 05:43 34.09971 104.37978 34226 ft 433 kts 188°
2026-04-21 05:43 34.03952 104.38071 34217 ft 437 kts 189°
2026-04-21 05:44 33.97878 104.38161 34226 ft 436 kts 189°
2026-04-21 05:44 33.91790 104.38254 34235 ft 436 kts 188°
2026-04-21 05:45 33.85764 104.38353 34238 ft 433 kts 188°
2026-04-21 05:45 33.79660 104.38444 34244 ft 439 kts 188°
2026-04-21 05:46 33.73599 104.38541 34159 ft 433 kts 188°
2026-04-21 05:46 33.70602 104.38595 33860 ft 425 kts 187°
2026-04-21 05:46 33.67675 104.38649 33568 ft 417 kts 187°
2026-04-21 05:47 33.64787 104.38740 33295 ft 414 kts 186°
2026-04-21 05:47 33.61877 104.39083 33037 ft 428 kts 178°
2026-04-21 05:47 33.58930 104.40037 32778 ft 445 kts 167°
2026-04-21 05:47 33.56081 104.41603 32520 ft 450 kts 160°
2026-04-21 05:48 33.53357 104.43412 32259 ft 453 kts 157°
2026-04-21 05:48 33.50654 104.45345 31999 ft 457 kts 155°
2026-04-21 05:48 33.47954 104.47338 31734 ft 454 kts 155°
2026-04-21 05:48 33.45263 104.49340 31466 ft 453 kts 154°
2026-04-21 05:49 33.42592 104.51320 31208 ft 455 kts 154°
2026-04-21 05:49 33.39870 104.53218 30941 ft 451 kts 159°
2026-04-21 05:49 33.37002 104.54616 30671 ft 442 kts 170°
2026-04-21 05:49 33.34010 104.55304 30411 ft 434 kts 179°
2026-04-21 05:50 33.31004 104.55630 30148 ft 432 kts 182°
2026-04-21 05:50 33.28037 104.55814 29881 ft 431 kts 183°
2026-04-21 05:50 33.25004 104.55950 29613 ft 432 kts 183°
2026-04-21 05:50 33.21998 104.56075 29348 ft 433 kts 182°
2026-04-21 05:51 33.19009 104.56210 29087 ft 434 kts 182°
2026-04-21 05:51 33.15985 104.56357 28831 ft 437 kts 182°
2026-04-21 05:51 33.12942 104.56518 28575 ft 439 kts 182°
2026-04-21 05:51 33.09861 104.56692 28316 ft 440 kts 181°
2026-04-21 05:52 33.06823 104.56872 28062 ft 442 kts 181°
2026-04-21 05:52 33.03717 104.57060 27794 ft 444 kts 181°
2026-04-21 05:52 33.00639 104.57252 27539 ft 445 kts 181°
2026-04-21 05:52 32.97552 104.57446 27290 ft 447 kts 181°
2026-04-21 05:53 32.94453 104.57642 27034 ft 447 kts 181°
2026-04-21 05:53 32.91311 104.57840 26775 ft 450 kts 181°
2026-04-21 05:53 32.88171 104.58039 26715 ft 452 kts 181°
2026-04-21 05:53 32.85053 104.58237 26719 ft 452 kts 181°
2026-04-21 05:54 32.81913 104.58438 26723 ft 452 kts 181°
2026-04-21 05:54 32.78776 104.58637 26736 ft 452 kts 181°
2026-04-21 05:54 32.75623 104.58836 26731 ft 454 kts 181°
2026-04-21 05:54 32.72443 104.59016 26735 ft 453 kts 181°
2026-04-21 05:55 32.69312 104.59166 26719 ft 453 kts 181°
2026-04-21 05:55 32.66149 104.59304 26707 ft 453 kts 181°
2026-04-21 05:55 32.63039 104.59436 26709 ft 452 kts 182°
2026-04-21 05:55 32.59858 104.59568 26709 ft 453 kts 182°
2026-04-21 05:56 32.56743 104.59698 26707 ft 451 kts 181°
2026-04-21 05:56 32.53578 104.59833 26698 ft 453 kts 181°
2026-04-21 05:56 32.50432 104.59971 26693 ft 452 kts 181°
2026-04-21 05:56 32.47287 104.60111 26682 ft 453 kts 181°
2026-04-21 05:57 32.44168 104.60252 26660 ft 452 kts 181°
2026-04-21 05:57 32.41017 104.60396 26638 ft 453 kts 181°
2026-04-21 05:57 32.37870 104.60547 26634 ft 454 kts 181°
2026-04-21 05:57 32.34713 104.60713 26631 ft 454 kts 181°
2026-04-21 05:58 32.31533 104.60889 26625 ft 454 kts 181°
2026-04-21 05:58 32.28375 104.61066 26609 ft 455 kts 181°
2026-04-21 05:58 32.25212 104.61245 26604 ft 453 kts 180°
2026-04-21 05:58 32.22056 104.61422 26588 ft 454 kts 181°
2026-04-21 05:59 32.18928 104.61596 26589 ft 453 kts 180°
2026-04-21 05:59 32.15774 104.61770 26588 ft 455 kts 181°
2026-04-21 05:59 32.12583 104.61946 26582 ft 454 kts 181°
2026-04-21 06:00 32.06300 104.62292 26580 ft 454 kts 180°
2026-04-21 06:00 32.03137 104.62464 26581 ft 454 kts 181°
2026-04-21 06:00 31.99961 104.62637 26580 ft 454 kts 181°
2026-04-21 06:00 31.96819 104.62807 26575 ft 454 kts 181°
2026-04-21 06:01 31.93654 104.62979 26572 ft 454 kts 180°
2026-04-21 06:01 31.90502 104.63149 26575 ft 455 kts 180°
2026-04-21 06:01 31.87320 104.63321 26558 ft 455 kts 180°
2026-04-21 06:01 31.84191 104.63493 26550 ft 453 kts 180°
2026-04-21 06:02 31.81019 104.63666 26543 ft 455 kts 180°
2026-04-21 06:02 31.77865 104.63837 26542 ft 454 kts 180°
2026-04-21 06:02 31.74720 104.64016 26543 ft 454 kts 180°
2026-04-21 06:02 31.71567 104.64251 26541 ft 454 kts 178°
2026-04-21 06:03 31.68417 104.64746 26536 ft 455 kts 173°
2026-04-21 06:03 31.65312 104.65525 26534 ft 457 kts 170°
2026-04-21 06:03 31.62252 104.66467 26532 ft 458 kts 168°
2026-04-21 06:03 31.59194 104.67500 26529 ft 457 kts 167°
2026-04-21 06:04 31.56121 104.68575 26527 ft 458 kts 167°
2026-04-21 06:04 31.53048 104.69658 26523 ft 457 kts 167°
2026-04-21 06:04 31.50040 104.70715 26521 ft 457 kts 167°
2026-04-21 06:04 31.46971 104.71785 26520 ft 458 kts 167°
2026-04-21 06:05 31.43897 104.72848 26519 ft 457 kts 167°
2026-04-21 06:05 31.40845 104.73897 26520 ft 457 kts 167°
2026-04-21 06:05 31.37800 104.74936 26518 ft 456 kts 167°
2026-04-21 06:05 31.34767 104.75941 26520 ft 457 kts 168°
2026-04-21 06:06 31.31649 104.76718 26517 ft 454 kts 175°
2026-04-21 06:06 31.28537 104.76867 26515 ft 449 kts 187°
2026-04-21 06:06 31.25458 104.76268 26512 ft 444 kts 198°
2026-04-21 06:06 31.22516 104.75129 26509 ft 443 kts 203°
2026-04-21 06:07 31.19649 104.73799 26503 ft 444 kts 205°
2026-04-21 06:07 31.16805 104.72391 26498 ft 438 kts 206°
2026-04-21 06:07 31.14083 104.71011 26497 ft 420 kts 206°
2026-04-21 06:07 31.11438 104.69659 26500 ft 406 kts 206°
2026-04-21 06:08 31.08879 104.68348 26499 ft 405 kts 206°
2026-04-21 06:08 31.06285 104.67020 26350 ft 410 kts 206°
2026-04-21 06:08 31.03688 104.65702 25969 ft 406 kts 206°
2026-04-21 06:08 31.01103 104.64399 25455 ft 402 kts 206°
2026-04-21 06:09 30.98550 104.63118 24872 ft 401 kts 205°
2026-04-21 06:09 30.95965 104.61826 24257 ft 400 kts 205°
2026-04-21 06:09 30.93421 104.60556 23662 ft 399 kts 205°
2026-04-21 06:09 30.90894 104.59295 23055 ft 399 kts 205°
2026-04-21 06:10 30.88338 104.58022 22432 ft 399 kts 204°
2026-04-21 06:10 30.85779 104.56753 21805 ft 398 kts 205°
2026-04-21 06:10 30.83243 104.55496 21184 ft 398 kts 205°
2026-04-21 06:10 30.80712 104.54243 20567 ft 397 kts 205°
2026-04-21 06:11 30.78186 104.52994 19949 ft 396 kts 205°
2026-04-21 06:11 30.75635 104.51730 19325 ft 395 kts 205°
2026-04-21 06:11 30.73131 104.50492 18719 ft 394 kts 205°
2026-04-21 06:11 30.70616 104.49247 18095 ft 392 kts 206°
2026-04-21 06:12 30.68106 104.48004 17483 ft 391 kts 205°
2026-04-21 06:12 30.65608 104.46767 16871 ft 389 kts 205°
2026-04-21 06:12 30.63146 104.45550 16274 ft 388 kts 205°
2026-04-21 06:12 30.60671 104.44327 15661 ft 386 kts 205°
2026-04-21 06:13 30.58212 104.43112 15051 ft 384 kts 205°
2026-04-21 06:13 30.55750 104.41898 14431 ft 382 kts 205°
2026-04-21 06:13 30.53343 104.40713 13812 ft 370 kts 205°
2026-04-21 06:13 30.51018 104.39571 13260 ft 356 kts 205°
2026-04-21 06:14 30.48781 104.38474 12751 ft 346 kts 205°
2026-04-21 06:14 30.46563 104.37382 12154 ft 347 kts 205°
2026-04-21 06:14 30.44319 104.36274 11584 ft 347 kts 205°
2026-04-21 06:14 30.42132 104.35195 11092 ft 344 kts 205°
2026-04-21 06:15 30.39917 104.34103 10603 ft 342 kts 204°
2026-04-21 06:15 30.37770 104.33048 10348 ft 331 kts 204°
2026-04-21 06:15 30.35681 104.32025 10229 ft 317 kts 204°
2026-04-21 06:15 30.33686 104.31052 10052 ft 303 kts 204°
2026-04-21 06:16 30.31786 104.30136 9719 ft 290 kts 203°
2026-04-21 06:16 30.29954 104.29271 9328 ft 281 kts 203°
2026-04-21 06:16 30.28133 104.28417 8967 ft 279 kts 203°
2026-04-21 06:16 30.26349 104.27583 8602 ft 279 kts 203°
2026-04-21 06:17 30.24549 104.26739 8242 ft 278 kts 203°
2026-04-21 06:17 30.22740 104.25891 7878 ft 278 kts 202°
2026-04-21 06:17 30.20947 104.25052 7518 ft 277 kts 202°
2026-04-21 06:17 30.19155 104.24213 7166 ft 277 kts 202°
2026-04-21 06:18 30.17378 104.23381 6807 ft 277 kts 202°
2026-04-21 06:18 30.15602 104.22549 6444 ft 277 kts 202°
2026-04-21 06:18 30.13810 104.21702 6085 ft 277 kts 202°
2026-04-21 06:18 30.12028 104.20865 5733 ft 277 kts 202°
2026-04-21 06:19 30.10230 104.20029 5368 ft 277 kts 201°
2026-04-21 06:19 30.08468 104.19206 5185 ft 270 kts 202°
2026-04-21 06:19 30.06760 104.18407 5040 ft 261 kts 202°
2026-04-21 06:19 30.05084 104.17623 4904 ft 253 kts 202°
2026-04-21 06:20 30.03485 104.16859 4904 ft 239 kts 202°
2026-04-21 06:20 30.01997 104.16147 4892 ft 230 kts 202°
2026-04-21 06:20 30.00504 104.15441 4895 ft 228 kts 202°
2026-04-21 06:20 29.99039 104.14754 4893 ft 227 kts 202°
2026-04-21 06:21 29.97631 104.14094 4919 ft 211 kts 202°
2026-04-21 06:21 29.96271 104.13457 4889 ft 207 kts 202°
2026-04-21 06:21 29.94920 104.12844 4898 ft 209 kts 202°
2026-04-21 06:21 29.93581 104.12225 4897 ft 206 kts 202°
2026-04-21 06:22 29.92232 104.11613 4894 ft 211 kts 199°
2026-04-21 06:22 29.90797 104.11345 4896 ft 206 kts 170°
2026-04-21 06:22 29.89537 104.12061 4905 ft 201 kts 129°
2026-04-21 06:22 29.88715 104.13364 4898 ft 201 kts 124°
2026-04-21 06:23 29.87648 104.14384 4897 ft 204 kts 147°
2026-04-21 06:23 29.86373 104.15163 4901 ft 206 kts 150°
2026-04-21 06:23 29.85120 104.15971 4893 ft 203 kts 145°
2026-04-21 06:23 29.83843 104.16647 4881 ft 204 kts 163°
2026-04-21 06:24 29.82413 104.16750 4913 ft 210 kts 182°
2026-04-21 06:24 29.80956 104.16690 4895 ft 208 kts 179°
2026-04-21 06:24 29.79515 104.16720 4899 ft 203 kts 177°
2026-04-21 06:24 29.78090 104.16778 4909 ft 209 kts 178°
2026-04-21 06:25 29.76622 104.16824 4898 ft 207 kts 178°
2026-04-21 06:25 29.75182 104.16844 4896 ft 209 kts 185°
2026-04-21 06:25 29.73816 104.16318 4907 ft 207 kts 211°
2026-04-21 06:25 29.72588 104.15434 4891 ft 207 kts 214°
2026-04-21 06:26 29.71492 104.14399 4885 ft 206 kts 238°
2026-04-21 06:26 29.70982 104.12876 4897 ft 202 kts 261°
2026-04-21 06:26 29.70734 104.11314 4893 ft 198 kts 270°
2026-04-21 06:26 29.70855 104.09761 4889 ft 193 kts 284°
2026-04-21 06:27 29.71122 104.08237 4894 ft 195 kts 284°
2026-04-21 06:27 29.71347 104.06700 4898 ft 194 kts 283°
2026-04-21 06:27 29.71752 104.05231 4884 ft 190 kts 309°
2026-04-21 06:27 29.72800 104.04411 4896 ft 184 kts 352°
2026-04-21 06:28 29.74063 104.04596 4903 ft 184 kts 17°
2026-04-21 06:28 29.75281 104.05067 4893 ft 185 kts 19°
2026-04-21 06:28 29.76459 104.05527 4881 ft 172 kts 18°
2026-04-21 06:28 29.77569 104.05984 4909 ft 168 kts 18°
2026-04-21 06:29 29.78698 104.06441 4907 ft 173 kts 18°
2026-04-21 06:29 29.79826 104.06890 4898 ft 170 kts 20°
2026-04-21 06:29 29.80964 104.07326 4896 ft 169 kts 16°
2026-04-21 06:29 29.82103 104.07719 4906 ft 173 kts 17°
2026-04-21 06:30 29.83254 104.08137 4906 ft 175 kts 18°
2026-04-21 06:30 29.84401 104.08552 4897 ft 170 kts 18°
2026-04-21 06:30 29.85536 104.08953 4900 ft 172 kts 18°
2026-04-21 06:30 29.86683 104.09373 4905 ft 172 kts 18°
2026-04-21 06:31 29.87815 104.09848 4902 ft 175 kts 26°
2026-04-21 06:31 29.88682 104.10811 4890 ft 175 kts 62°
2026-04-21 06:31 29.88946 104.12174 4909 ft 180 kts 85°
2026-04-21 06:31 29.88827 104.13619 4894 ft 183 kts 99°
2026-04-21 06:32 29.88372 104.15005 4907 ft 185 kts 112°
2026-04-21 06:32 29.87819 104.16375 4898 ft 188 kts 109°
2026-04-21 06:32 29.87324 104.17754 4891 ft 186 kts 108°
2026-04-21 06:32 29.86886 104.19142 4885 ft 184 kts 101°
2026-04-21 06:33 29.86897 104.20570 4882 ft 177 kts 62°
2026-04-21 06:33 29.87690 104.21578 4902 ft 173 kts 34°
2026-04-21 06:33 29.88683 104.22369 4882 ft 172 kts 33°
2026-04-21 06:33 29.89718 104.23133 4882 ft 175 kts 28°
2026-04-21 06:34 29.90782 104.23774 4869 ft 174 kts 25°
2026-04-21 06:34 29.91865 104.24376 4883 ft 171 kts 24°
2026-04-21 06:34 29.92954 104.24936 4890 ft 172 kts 23°
2026-04-21 06:34 29.94061 104.25472 4887 ft 171 kts 21°
2026-04-21 06:35 29.95177 104.26005 4910 ft 174 kts 21°
2026-04-21 06:35 29.96320 104.26547 4895 ft 180 kts 21°
2026-04-21 06:35 29.97490 104.27089 4897 ft 182 kts 21°
2026-04-21 06:35 29.98674 104.27647 4894 ft 184 kts 21°
2026-04-21 06:36 29.99871 104.28213 4899 ft 185 kts 21°
2026-04-21 06:36 30.01067 104.28740 4892 ft 181 kts 20°
2026-04-21 06:36 30.02248 104.29271 4897 ft 184 kts 22°
2026-04-21 06:36 30.03422 104.29827 4892 ft 182 kts 22°
2026-04-21 06:37 30.04599 104.30378 4896 ft 183 kts 22°
2026-04-21 06:37 30.05788 104.30932 4897 ft 183 kts 21°
2026-04-21 06:37 30.06968 104.31479 4897 ft 184 kts 21°
2026-04-21 06:37 30.08159 104.32032 4895 ft 182 kts 21°
2026-04-21 06:38 30.09346 104.32584 4897 ft 184 kts 21°
2026-04-21 06:38 30.10524 104.33130 4896 ft 181 kts 21°
2026-04-21 06:38 30.11696 104.33669 4899 ft 184 kts 21°
2026-04-21 06:38 30.12903 104.34230 4834 ft 183 kts 21°
2026-04-21 06:39 30.14065 104.34770 4618 ft 180 kts 21°
2026-04-21 06:39 30.15229 104.35310 4372 ft 175 kts 22°
2026-04-21 06:39 30.16299 104.35812 4138 ft 165 kts 22°
2026-04-21 06:39 30.17323 104.36286 3965 ft 149 kts 22°
2026-04-21 06:40 30.18263 104.36724 3699 ft 141 kts 22°
2026-04-21 06:40 30.19168 104.37149 3563 ft 141 kts 22°
2026-04-21 06:40 30.20092 104.37580 3349 ft 144 kts 22°
2026-04-21 06:40 30.21009 104.38010 3162 ft 140 kts 21°
2026-04-21 06:41 30.21917 104.38432 2968 ft 143 kts 21°
2026-04-21 06:41 30.22832 104.38853 2769 ft 142 kts 22°
2026-04-21 06:41 30.23755 104.39290 2589 ft 143 kts 23°
2026-04-21 06:41 30.24682 104.39723 2398 ft 143 kts 22°
2026-04-21 06:42 30.25608 104.40152 2207 ft 144 kts 21°
2026-04-21 06:42 30.26553 104.40589 2016 ft 145 kts 22°
2026-04-21 06:42 30.27492 104.41025 1818 ft 144 kts 22°
2026-04-21 06:42 30.28420 104.41456 1629 ft 143 kts 22°
2026-04-21 06:43 30.29328 104.41884 1467 ft 137 kts 22°
2026-04-21 06:43 30.30051 104.42223 1459 ft 73 kts 23°
2026-04-21 06:43 30.30334 104.42358 1459 ft 26 kts 33°
2026-04-21 06:43 30.30444 104.42467 1459 ft 6 kts 43°
2026-04-21 06:44 30.30476 104.42503 1459 ft 6 kts 44°
2026-04-21 06:44 30.30506 104.42542 1459 ft 6 kts 50°
2026-04-21 06:44 30.30535 104.42583 1459 ft 6 kts 50°
2026-04-21 06:44 30.30565 104.42624 1459 ft 7 kts 50°
2026-04-21 06:45 30.30604 104.42677 1459 ft 9 kts 49°
2026-04-21 06:45 30.30664 104.42725 1459 ft 11 kts 22°
2026-04-21 06:45 30.30747 104.42763 1459 ft 13 kts 22°
2026-04-21 06:45 30.30838 104.42806 1459 ft 14 kts 21°
2026-04-21 06:46 30.30931 104.42849 1459 ft 14 kts 21°
2026-04-21 06:46 30.31018 104.42893 1459 ft 12 kts 30°
2026-04-21 06:46 30.31019 104.42979 1459 ft 12 kts 112°
2026-04-21 06:46 30.30988 104.43070 1459 ft 12 kts 112°
2026-04-21 06:47 30.30956 104.43160 1459 ft 12 kts 112°
2026-04-21 06:47 30.30923 104.43252 1459 ft 12 kts 112°
2026-04-21 06:47 30.30890 104.43346 1459 ft 12 kts 111°
2026-04-21 06:47 30.30869 104.43428 1459 ft 9 kts 73°
2026-04-21 06:48 30.30923 104.43472 1459 ft 9 kts 22°
2026-04-21 06:48 30.30987 104.43503 1459 ft 9 kts 22°
2026-04-21 06:48 30.31051 104.43533 1459 ft 9 kts 22°
2026-04-21 06:48 30.31115 104.43564 1459 ft 9 kts 22°
2026-04-21 06:49 30.31179 104.43594 1459 ft 9 kts 22°
2026-04-21 06:49 30.31204 104.43627 1459 ft 5 kts 95°
2026-04-21 06:49 30.31192 104.43673 1459 ft 6 kts 110°
2026-04-21 06:49 30.31177 104.43718 1459 ft 5 kts 111°
2026-04-21 06:50 30.31164 104.43758 1459 ft 0 kts 111°